Regional Weather Roundup
Issued by NWS

Home | Current Version | Previous Version | Graphics & Text | Print | Product List | Glossary On
Versions: 1 2 3 4 5 6 7 8 9 10 11 12 13 14 15 16 17 18 19 20 21 22 23 24 25 26 27 28 29 30 31 32 33 34 35 36 37 38 39 40 41 42 43 44 45 46 47 48 49 50
000
ASUS45 KABQ 191310
RWRNM
WEATHER ROUNDUP FOR NEW MEXICO
NATIONAL WEATHER SERVICE ALBUQUERQUE NM
600 AM MST FRI DEC 19 2014

NOTE: "FAIR" MEANS FEW OR NO CLOUDS BELOW 12,000 FEET AGL WITH NO
       SIGNIFICANT WEATHER OR OBSTRUCTIONS TO VISION.

      THIS PRODUCT IS RELEASED AS TWO VERSIONS.  ONE VERSION NEAR
      THE TOP OF THE HOUR CONTAINING PRELIMINARY DATA FROM ALBUQUERQUE
      AND OTHER STATIONS.  A FINAL VERSION WITH ADDITIONAL DATA IS
      ISSUED ABOUT 10 MINUTES AFTER THE HOUR.

NMZ501-503-504-510>518-191400-
NORTHWEST PLATEAU/NORTHCENTRAL MOUNTAINS

CITY           SKY/WX    TMP DP  RH WIND       PRES   REMARKS
FARMINGTON     FOG       26  25  96 NE5       30.20R VSB 1/2 WCI  20
LOS ALAMOS     CLEAR     26  19  74 CALM      30.14R
SANTA FE       CLEAR     25  21  85 NW5       30.12R WCI  19
TAOS           CLOUDY    19  16  86 N6        30.14R WCI  11
ANGEL FIRE     FOG        1  -2  86 CALM      30.12R VSB 1/4

$$
NMZ402-403-502-505>509-191400-
WESTCENTRAL MOUNTAINS/SOUTHWEST MOUNTAINS

CITY           SKY/WX    TMP DP  RH WIND       PRES   REMARKS
GALLUP         HAZE      23  17  78 CALM      30.21R VSB 3/4
GRANTS         CLOUDY    22  21  95 NW5       30.21S WCI  16
SILVER CITY    CLEAR     28  28 100 N8        30.18R WCI  20

$$
NMZ407-409-411-412-191400-
SOUTHERN DESERTS

CITY           SKY/WX    TMP DP  RH WIND       PRES   REMARKS
LORDSBURG      FOG       32  32 100 W5        30.19R VSB 1/4 WCI  27
DEMING         CLEAR     28  28 100 SW3       30.18R
LAS CRUCES     PTCLDY    32  32  99 NW8       30.18R WCI  25
HOLLOMAN AFB   PTCLDY    34  33  99 N6        30.15R WCI  28
ALAMOGORDO     PTCLDY    36  32  87 NW7       30.16R WCI  30
T OR C         CLEAR     31  27  85 N6        30.16R WCI  25

$$
NMZ519>523-191400-
CENTRAL VALLEYS/CENTRAL HIGHLANDS

CITY           SKY/WX    TMP DP  RH WIND       PRES   REMARKS
ALBUQUERQUE    CLEAR     32  26  78 N6        30.18R WCI  26
DOUBLE EAGLE   CLEAR     30  25  80 N13       30.18R WCI  20
MORIARTY ARPT  FAIR      24  20  85 NW5       30.14R WCI  18
CLINES CORNERS CLEAR     23  21  92 NW17      30.07R WCI   9
BELEN          FAIR      24  24 100 N3        30.19R
SOCORRO        FAIR      28  27  96 CALM      30.18R

$$
NMZ524>526-539-540-191400-
SOUTHCENTRAL MOUNTAINS

CITY           SKY/WX    TMP DP  RH WIND       PRES   REMARKS
RUIDOSO        CLEAR     28  25  86 W12       30.13R WCI  18

$$
NMZ527>531-191400-
NORTHEAST HIGHLANDS/NORTHEAST PLAINS

CITY           SKY/WX    TMP DP  RH WIND       PRES   REMARKS
LAS VEGAS      CLEAR     24  15  68 N6        30.08R WCI  17
RATON          CLEAR     20  18  92 NE8       30.07R WCI  10
CLAYTON        PTCLDY    26  23  88 W3        30.08R

$$
NMZ532>537-191400-
EASTCENTRAL PLAINS

CITY           SKY/WX    TMP DP  RH WIND       PRES   REMARKS
TUCUMCARI      CLOUDY    35  31  85 N9        30.11R WCI  28
CANNON AFB     CLOUDY    36  35  97 S8        30.09S FOG     WCI  30
CLOVIS AIRPORT CLOUDY    36  34  93 S10       30.09S WCI  28

$$
NMZ028-029-538-191400-
SOUTHEAST PLAINS

CITY           SKY/WX    TMP DP  RH WIND       PRES   REMARKS
ROSWELL        CLEAR     36  31  82 N3        30.11R
ARTESIA        MOCLDY    36  34  93 W9        30.13R WCI  29
CARLSBAD       CLEAR     39  32  76 CALM      30.12R
HOBBS          FOG       34  34 100 CALM      30.12R VSB 1/4


$$


USA.gov is the U.S. government's official web portal to all federal, state and local government web resources and services.